[[{"header":{"parameterUnit":"m.s-1","parameterCategory":1,"la1":30.2991,"la2":30.254,"lo1":-89.0895,"lo2":-89.0444,"dy":0.0017,"dx":0.0017,"nx":28,"ny":28,"refTime":"2025-01-28T09:00:00:Z","depth":0,"parameterNumber":2,"parameterNumberName":"U-component_of_WINDS"},"data":[0,0,0,0,0,0,0,0,0,0,0,0,0,0,0,0,0,0,0,0,0,0,0,0,0,0,0,0,0,0,0,0,0,0,0,0,0,0,0,0,0,0,0,0,0,0,0,0,0,0,0,0,0,0,0,0,0,0,1.3984,1.3985,0,1.4084,1.4085,1.4086,1.4097,1.4096,1.4095,1.4094,1.4198,1.4201,1.4205,0,0,0,0,0,0,0,0,0,0,0,0,0,1.3803,1.3806,1.3984,1.3985,1.3986,1.4083,1.4085,1.4086,1.4097,1.4096,1.4094,1.4093,1.4196,1.4201,1.4205,0,0,0,0,0,0,0,0,0,0,0,0,0,1.389,1.3807,1.3983,1.4003,1.4006,1.4083,1.4085,1.4087,1.4097,1.4096,1.4094,1.4093,1.4195,1.42,1.4206,1.4271,0,0,1.4223,1.4225,0,0,0,0,0,0,0,0,1.3885,1.3897,1.3999,1.4002,1.4005,1.4076,1.4059,1.4148,1.4098,1.4063,1.4094,1.4092,1.4159,1.4167,1.4189,1.4276,1.428,1.4223,1.4227,1.4229,1.4231,0,0,0,0,0,0,0,1.3879,1.3892,1.4023,1.4,1.4004,1.4007,1.4018,1.4076,1.4118,1.4065,1.4066,1.4078,1.416,1.4184,1.4192,1.4282,1.4223,1.4228,1.4232,1.4234,1.4426,1.4428,0,0,0,0,0,0,1.3869,1.3887,1.402,1.4026,1.394,1.4012,1.4024,1.4055,1.4117,1.4125,1.4079,1.4078,1.4175,1.4185,1.4195,1.4275,1.4229,1.4234,1.4237,1.4425,1.4427,1.4429,0,0,0,0,0,0,1.3865,1.3881,1.4016,1.3957,1.3974,1.4017,1.4051,1.4058,1.4081,1.4128,1.4135,1.4096,1.4174,1.4188,1.4252,1.4279,1.4237,1.4242,1.4422,1.4425,1.4428,1.4435,0,0,0,0,0,0,1.386,1.3879,1.3904,1.3957,1.3978,1.407,1.4053,1.4061,1.4091,1.409,1.4145,1.4153,1.4174,1.4243,1.4257,1.4286,1.4246,1.442,1.4424,1.4427,1.4433,1.4438,1.4442,0,0,0,0,0,1.3853,1.3903,1.3905,1.3921,1.4009,1.4072,1.4083,1.4106,1.4093,1.4118,1.4148,1.4151,1.4274,1.425,1.4266,1.4296,1.4419,1.4423,1.4427,1.4431,1.4437,1.4442,0,0,0,0,0,0,1.3852,1.391,1.3914,1.3982,1.4022,1.4074,1.4106,1.4112,1.4157,1.4155,1.4182,1.4194,1.4257,1.4283,1.4256,1.4362,1.4345,1.4352,1.4343,1.4349,1.4354,1.4346,1.4251,0,0,0,0,0,1.3859,1.3905,1.3953,1.4009,1.4029,1.4064,1.4092,1.4106,1.4149,1.4166,1.4201,1.4242,1.429,1.4321,1.4368,1.4437,1.4449,1.4466,1.447,1.4474,1.448,1.4518,1.4526,1.4442,1.4442,1.4442,0,0,1.3875,1.3913,1.394,1.4009,1.4042,1.4089,1.4078,1.4128,1.4163,1.4174,1.4236,1.4263,1.4312,1.4378,1.4409,1.4402,1.4506,1.4479,1.4482,1.4486,1.4523,1.4531,1.4538,1.4444,1.4444,1.4443,0,0,1.3928,1.3961,1.4011,1.4044,1.4093,1.4116,1.4128,1.418,1.4198,1.4261,1.4269,1.4312,1.4394,1.4428,1.4456,1.4522,1.4526,1.4536,1.4561,1.4597,1.4604,1.461,1.4633,1.4641,1.4542,1.4542,1.4542,0,1.3942,1.4012,1.4036,1.4085,1.4115,1.4127,1.4177,1.4208,1.4271,1.4291,1.4282,1.4385,1.4419,1.4493,1.4509,1.4532,1.4546,1.453,1.4601,1.4607,1.4613,1.4636,1.4644,1.4543,1.4543,1.4543,1.4543,0,1.4026,1.4075,1.4109,1.4169,1.4203,1.4253,1.4284,1.4316,1.4327,1.4351,1.4415,1.4456,1.451,1.4529,1.4541,1.4606,1.46,1.4596,1.4579,1.4622,1.4643,1.4652,1.4544,1.4544,1.4544,1.4543,0,0,1.4081,1.4152,1.4164,1.4191,1.4247,1.4285,1.4336,1.4389,1.4415,1.4458,1.4501,1.457,1.4567,1.4598,1.4614,1.4647,1.4695,1.4639,1.464,1.4647,1.4769,1.4771,1.478,1.4699,1.4701,1.4702,1.4765,0,1.4139,1.4229,1.4251,1.4328,1.4373,1.4384,1.4428,1.4467,1.4492,1.4534,1.4561,1.4609,1.4601,1.462,1.4653,1.4683,1.472,1.4679,1.4739,1.4741,1.4726,1.4792,1.4794,1.4851,1.4773,1.4775,1.4776,0,1.4219,1.4263,1.4344,1.4394,1.4413,1.4452,1.4503,1.4543,1.4588,1.4603,1.4638,1.4651,1.4704,1.4685,1.4758,1.4729,1.4756,1.4774,1.4777,1.4783,1.476,1.4799,1.487,1.4878,1.4789,1.4788,1.4787,0,1.425,1.4329,1.4388,1.4411,1.447,1.4497,1.4523,1.4566,1.4597,1.4641,1.4661,1.4712,1.4739,1.4778,1.4803,1.4787,1.4875,1.4858,1.4889,1.4888,1.4906,1.4905,1.4982,1.4924,1.4924,1.4924,1.4924,0,1.4312,1.4361,1.4402,1.4438,1.4493,1.4519,1.4573,1.4599,1.4637,1.4679,1.4693,1.4731,1.4763,1.4807,1.4827,1.4885,1.4897,1.4911,1.4916,1.491,1.4908,1.4926,1.4923,1.4926,1.4926,1.4925,1.4925,0,1.4355,1.4385,1.4449,1.45,1.4514,1.4552,1.4596,1.4632,1.4656,1.4708,1.4722,1.4761,1.4813,1.4842,1.4908,1.4921,1.4985,1.4989,1.497,1.4972,1.5001,1.4997,1.5092,1.5106,1.504,1.5041,1.5041,0,1.4393,1.443,1.4485,1.4514,1.454,1.4586,1.4617,1.4644,1.4676,1.473,1.4759,1.4811,1.4854,1.4936,1.497,1.502,1.5024,1.5054,1.5032,1.5024,1.5024,1.5021,1.5024,1.5057,1.5058,1.5059,1.5059,0,1.4456,1.4469,1.4513,1.4562,1.4599,1.4639,1.4679,1.4702,1.4736,1.4771,1.4823,1.4857,1.4923,1.4974,1.5027,1.5055,1.5062,1.5066,1.5076,1.5069,1.5056,1.5063,1.4979,1.5063,1.5063,1.5063,1.5062,1.5062,1.4497,1.4531,1.4574,1.4623,1.4656,1.4693,1.4729,1.4758,1.4802,1.4858,1.4871,1.4926,1.497,1.5042,1.507,1.5114,1.5109,1.5123,1.5127,1.513,1.513,1.505,1.5124,1.5124,1.5124,1.5124,1.5124,0,1.456,1.4589,1.4633,1.4689,1.4727,1.4731,1.4776,1.4807,1.4856,1.4896,1.4938,1.4998,1.5048,1.5087,1.5138,1.5166,1.5171,1.5178,1.5176,1.5182,1.5132,1.5118,1.5173,1.5173,1.5173,1.5173,1.5173,1.5173,1.4597,1.4654,1.4672,1.4746,1.4775,1.4829,1.4854,1.4888,1.492,1.4987,1.5029,1.5053,1.5093,1.5147,1.5193,1.5203,1.5221,1.5228,1.5239,1.5191,1.5186,1.5181,1.5168,1.5232,1.5232,1.5285,1.5286,1.5286]},{"header":{"parameterUnit":"m.s-1","parameterCategory":1,"la1":30.2991,"la2":30.254,"lo1":-89.0895,"lo2":-89.0444,"dy":0.0017,"dx":0.0017,"nx":28,"ny":28,"refTime":"2025-01-28T09:00:00:Z","depth":0,"parameterNumber":3,"parameterNumberName":"V-component_of_WINDS"},"data":[0,0,0,0,0,0,0,0,0,0,0,0,0,0,0,0,0,0,0,0,0,0,0,0,0,0,0,0,0,0,0,0,0,0,0,0,0,0,0,0,0,0,0,0,0,0,0,0,0,0,0,0,0,0,0,0,0,0,1.333,1.3329,0,1.3305,1.3304,1.3304,1.3284,1.3284,1.3283,1.3283,1.3255,1.3255,1.3254,0,0,0,0,0,0,0,0,0,0,0,0,0,1.3358,1.3357,1.333,1.3329,1.3329,1.3305,1.3304,1.3304,1.3284,1.3284,1.3283,1.3283,1.3255,1.3255,1.3254,0,0,0,0,0,0,0,0,0,0,0,0,0,1.334,1.3357,1.333,1.3316,1.3315,1.3305,1.3304,1.3304,1.3284,1.3284,1.3283,1.3283,1.3255,1.3255,1.3254,1.3255,0,0,1.3251,1.3251,0,0,0,0,0,0,0,0,1.3341,1.3339,1.3318,1.3317,1.3315,1.3297,1.3304,1.3287,1.3284,1.3295,1.3283,1.3283,1.3269,1.3267,1.3263,1.3253,1.3252,1.3251,1.3251,1.325,1.325,0,0,0,0,0,0,0,1.3342,1.334,1.332,1.3318,1.3316,1.331,1.3308,1.3301,1.3284,1.3294,1.3293,1.329,1.3268,1.3264,1.3262,1.3252,1.3251,1.325,1.325,1.325,1.3241,1.3241,0,0,0,0,0,0,1.3346,1.3341,1.332,1.3319,1.3328,1.331,1.3307,1.3303,1.3284,1.3281,1.3291,1.329,1.3265,1.3263,1.3261,1.3261,1.325,1.3249,1.3249,1.324,1.3241,1.3241,0,0,0,0,0,0,1.3347,1.3344,1.3321,1.333,1.3326,1.331,1.3306,1.3303,1.3299,1.3281,1.3278,1.3289,1.3265,1.3262,1.3256,1.3259,1.3249,1.3248,1.324,1.324,1.3241,1.326,0,0,0,0,0,0,1.3348,1.3345,1.3346,1.333,1.3326,1.3318,1.3306,1.3303,1.3297,1.3296,1.3279,1.3276,1.3265,1.3258,1.3256,1.3258,1.3248,1.324,1.324,1.3241,1.3259,1.3261,1.3263,0,0,0,0,0,1.3349,1.3351,1.3346,1.3343,1.3327,1.3318,1.3316,1.3303,1.3298,1.3298,1.3287,1.3277,1.3259,1.3257,1.3255,1.3257,1.3239,1.324,1.3241,1.3258,1.3261,1.3263,0,0,0,0,0,0,1.3367,1.3349,1.3343,1.3341,1.3331,1.3315,1.3315,1.3306,1.3298,1.3296,1.328,1.3276,1.3272,1.3264,1.3262,1.3256,1.3248,1.3248,1.3262,1.3264,1.3266,1.3269,1.3247,0,0,0,0,0,1.3371,1.3367,1.3351,1.335,1.3346,1.3331,1.3327,1.3318,1.3308,1.3303,1.3292,1.3281,1.3273,1.3268,1.326,1.3257,1.3253,1.3258,1.326,1.3261,1.3261,1.3259,1.3261,1.3243,1.3243,1.3243,0,0,1.3379,1.3369,1.3367,1.3354,1.3346,1.3341,1.3328,1.3323,1.3319,1.3302,1.3296,1.3287,1.3274,1.327,1.3268,1.3263,1.3265,1.3262,1.3263,1.3263,1.326,1.3262,1.3263,1.3243,1.3243,1.3243,0,0,1.3391,1.3383,1.3382,1.3374,1.3362,1.3352,1.3351,1.3336,1.333,1.3324,1.3311,1.3305,1.3292,1.3283,1.3277,1.3285,1.3276,1.3283,1.3293,1.3291,1.3292,1.3294,1.3297,1.3298,1.3283,1.3283,1.3283,0,1.3402,1.3395,1.3382,1.3378,1.3373,1.3358,1.3356,1.3349,1.3334,1.333,1.3325,1.3308,1.3298,1.3292,1.3294,1.3289,1.3288,1.3285,1.3293,1.3294,1.3295,1.3298,1.3299,1.3284,1.3284,1.3284,1.3284,0,1.3409,1.3404,1.3405,1.3392,1.3387,1.3384,1.337,1.3365,1.3357,1.3347,1.3341,1.3328,1.3317,1.3315,1.3306,1.3307,1.3304,1.3297,1.3288,1.3298,1.3301,1.3301,1.3286,1.3285,1.3285,1.3285,0,0,1.3433,1.3413,1.3413,1.3407,1.3393,1.3388,1.3384,1.3374,1.3371,1.3361,1.3357,1.3346,1.3339,1.3332,1.3322,1.332,1.3327,1.3312,1.3312,1.3316,1.3328,1.3334,1.3335,1.3321,1.3321,1.3321,1.3329,0,1.3443,1.3436,1.3424,1.3421,1.3416,1.3401,1.3398,1.3388,1.3379,1.3373,1.3362,1.3354,1.3345,1.3341,1.3339,1.3327,1.333,1.3326,1.3316,1.3316,1.3321,1.3337,1.3343,1.3351,1.333,1.333,1.333,0,1.3454,1.3446,1.3442,1.3428,1.3425,1.3423,1.3413,1.3407,1.3395,1.3388,1.3381,1.337,1.3364,1.3356,1.3347,1.3345,1.334,1.3334,1.3334,1.3333,1.3324,1.3336,1.3354,1.3355,1.3331,1.3331,1.3331,0,1.3471,1.346,1.3456,1.3451,1.3434,1.3433,1.3426,1.3414,1.3408,1.3399,1.3395,1.3385,1.3379,1.3371,1.3357,1.3352,1.335,1.3341,1.3344,1.3344,1.3344,1.3345,1.3362,1.3341,1.3341,1.3341,1.3341,0,1.3484,1.3483,1.3464,1.3462,1.346,1.3445,1.3443,1.3434,1.3424,1.3419,1.3405,1.3401,1.3383,1.3376,1.3365,1.3359,1.3357,1.3351,1.3348,1.3352,1.3353,1.3349,1.3348,1.3341,1.3341,1.3341,1.3341,0,1.3504,1.3491,1.3487,1.3471,1.3467,1.3466,1.3452,1.3449,1.3439,1.3433,1.3431,1.3415,1.3406,1.3391,1.3378,1.3371,1.3367,1.3362,1.3372,1.337,1.3374,1.3374,1.339,1.3391,1.3369,1.3369,1.3369,0,1.3513,1.3512,1.3496,1.3492,1.3486,1.348,1.3475,1.346,1.3455,1.3441,1.344,1.343,1.3422,1.3408,1.3395,1.3384,1.3379,1.3385,1.3377,1.3382,1.3379,1.338,1.338,1.3387,1.3387,1.3388,1.3388,0,1.353,1.3524,1.3518,1.3509,1.3503,1.3495,1.3487,1.3484,1.3467,1.3462,1.3454,1.3447,1.3434,1.3424,1.3412,1.3403,1.3393,1.339,1.3391,1.3395,1.3401,1.3398,1.3377,1.339,1.339,1.339,1.339,1.339,1.3545,1.3543,1.3532,1.3525,1.3517,1.351,1.3506,1.3496,1.3489,1.3478,1.3469,1.3461,1.3448,1.3431,1.3423,1.3416,1.3411,1.3411,1.3411,1.3412,1.3413,1.3402,1.3413,1.3413,1.3413,1.3413,1.3413,0,1.3562,1.3555,1.3548,1.3537,1.3531,1.3522,1.3512,1.3508,1.3501,1.3491,1.3483,1.3473,1.3464,1.3449,1.3439,1.3436,1.3431,1.3433,1.3434,1.3432,1.3418,1.3419,1.3438,1.3438,1.3438,1.3438,1.3438,1.3438,1.3571,1.3567,1.356,1.3552,1.3544,1.3537,1.3532,1.3524,1.3516,1.3506,1.3498,1.3489,1.3477,1.3465,1.3456,1.3452,1.3448,1.3453,1.3447,1.3435,1.3433,1.3431,1.3432,1.3452,1.3452,1.3461,1.3461,1.3461]}]]